[[{"header":{"parameterUnit":"m.s-1","parameterCategory":1,"la1":30.2991,"la2":30.254,"lo1":-89.0895,"lo2":-89.0444,"dy":0.0017,"dx":0.0017,"nx":28,"ny":28,"refTime":"2025-07-18T21:00:00:Z","depth":0,"parameterNumber":2,"parameterNumberName":"U-component_of_WINDS"},"data":[0,0,0,0,0,0,0,0,0,0,0,0,0,0,0,0,0,0,0,0,0,0,0,0,0,0,0,0,0,0,0,0,0,0,0,0,0,0,0,0,0,0,0,0,0,0,0,0,0,0,0,0,0,0,0,0,0,0,2.477,2.477,0,2.4832,2.4832,2.4833,2.4834,2.4833,2.4832,2.4831,2.4897,2.49,2.4902,0,0,0,0,0,0,0,0,0,0,0,0,0,2.4653,2.4655,2.4769,2.477,2.4771,2.4832,2.4832,2.4833,2.4834,2.4833,2.4832,2.4831,2.4896,2.4899,2.4902,0,0,0,0,0,0,0,0,0,0,0,0,0,2.4708,2.4656,2.4769,2.4779,2.478,2.4831,2.4832,2.4834,2.4834,2.4833,2.4832,2.4831,2.4895,2.4899,2.4903,2.495,0,0,2.4914,2.4916,0,0,0,0,0,0,0,0,2.4705,2.4713,2.4776,2.4778,2.478,2.4824,2.4815,2.4873,2.4834,2.4814,2.4831,2.483,2.4874,2.4879,2.4894,2.4953,2.4956,2.4915,2.4917,2.4918,2.4919,0,0,0,0,0,0,0,2.4701,2.471,2.4794,2.4777,2.4779,2.478,2.4787,2.4826,2.485,2.4815,2.4815,2.4823,2.4875,2.489,2.4895,2.4957,2.4914,2.4918,2.492,2.4922,2.5057,2.5058,0,0,0,0,0,0,2.4695,2.4707,2.4792,2.4796,2.4739,2.4783,2.4791,2.4811,2.4849,2.4854,2.4824,2.4823,2.4884,2.4891,2.4898,2.4954,2.4918,2.4922,2.4924,2.5056,2.5057,2.5059,0,0,0,0,0,0,2.4693,2.4703,2.479,2.4751,2.4762,2.4786,2.4809,2.4813,2.4828,2.4856,2.486,2.4835,2.4884,2.4892,2.4936,2.4957,2.4924,2.4927,2.5054,2.5056,2.5058,2.5069,0,0,0,0,0,0,2.4689,2.4702,2.472,2.4752,2.4765,2.4827,2.4811,2.4815,2.4834,2.4833,2.4867,2.4872,2.4883,2.4931,2.494,2.4961,2.493,2.5052,2.5055,2.5058,2.5067,2.5071,2.5075,0,0,0,0,0,2.4685,2.4721,2.4721,2.4731,2.4787,2.4828,2.4835,2.4847,2.4836,2.4854,2.4872,2.4871,2.4953,2.4935,2.4946,2.4968,2.5051,2.5054,2.5057,2.5065,2.507,2.5075,0,0,0,0,0,0,2.4691,2.4725,2.4725,2.4772,2.4797,2.4828,2.4851,2.4852,2.4882,2.488,2.4894,2.4901,2.4945,2.4962,2.4941,2.5016,2.5001,2.5006,2.5003,2.5008,2.5012,2.5007,2.4933,0,0,0,0,0,2.4698,2.4728,2.4756,2.4795,2.4807,2.4827,2.4846,2.4852,2.4879,2.489,2.4911,2.4937,2.4969,2.499,2.5021,2.507,2.5077,2.509,2.5094,2.5097,2.5101,2.5128,2.5134,2.5069,2.5069,2.5069,0,0,2.4712,2.4734,2.4752,2.4796,2.4817,2.4848,2.4836,2.487,2.4893,2.4895,2.4938,2.4954,2.4985,2.5031,2.5053,2.5046,2.5121,2.5101,2.5103,2.5106,2.5132,2.5138,2.5143,2.5071,2.5071,2.507,0,0,2.4753,2.4773,2.4807,2.4827,2.4858,2.4871,2.4879,2.491,2.4921,2.4964,2.4966,2.4995,2.5049,2.5071,2.5089,2.5138,2.5138,2.5148,2.5168,2.5194,2.5199,2.5203,2.522,2.5226,2.5152,2.5153,2.5153,0,2.4767,2.4813,2.4825,2.4858,2.4877,2.488,2.4915,2.4934,2.4974,2.4987,2.4979,2.5047,2.5069,2.512,2.5132,2.5147,2.5156,2.5144,2.5197,2.5202,2.5206,2.5223,2.5229,2.5153,2.5153,2.5153,2.5153,0,2.4828,2.486,2.4884,2.4921,2.4943,2.4977,2.4994,2.5015,2.5021,2.5035,2.5078,2.5103,2.5139,2.5152,2.5158,2.5204,2.5199,2.5194,2.5179,2.5213,2.5229,2.5235,2.5155,2.5154,2.5154,2.5154,0,0,2.4874,2.4917,2.4925,2.4942,2.4976,2.5001,2.5035,2.507,2.5087,2.5115,2.5143,2.519,2.5185,2.5206,2.5214,2.5237,2.5273,2.5229,2.523,2.5235,2.5325,2.5328,2.5335,2.5274,2.5275,2.5276,2.5322,0,2.4918,2.4977,2.4989,2.5041,2.5071,2.5075,2.5105,2.5129,2.5143,2.5171,2.5187,2.5219,2.5211,2.5223,2.5246,2.5264,2.5291,2.5261,2.5301,2.5302,2.5292,2.5343,2.5346,2.5388,2.5328,2.5329,2.533,0,2.4977,2.5005,2.5059,2.5089,2.5102,2.5128,2.5161,2.5187,2.5215,2.5224,2.5247,2.5253,2.5289,2.5273,2.5323,2.5302,2.5319,2.533,2.5332,2.5336,2.5317,2.5347,2.5402,2.5407,2.534,2.5339,2.5338,0,2.5003,2.5055,2.5094,2.5108,2.5144,2.5163,2.5179,2.5205,2.5225,2.5254,2.5266,2.5299,2.5317,2.5342,2.5357,2.5344,2.5406,2.5391,2.5414,2.5413,2.5425,2.5424,2.5483,2.5438,2.5438,2.5438,2.5438,0,2.5051,2.5084,2.5106,2.513,2.5168,2.5181,2.5218,2.5234,2.5258,2.5285,2.5291,2.5317,2.5335,2.5364,2.5376,2.5415,2.5423,2.5431,2.5434,2.543,2.5429,2.544,2.5438,2.544,2.544,2.5439,2.5439,0,2.5086,2.5102,2.5145,2.5176,2.5184,2.521,2.5237,2.526,2.5275,2.5309,2.5318,2.5341,2.5375,2.5392,2.5435,2.5443,2.5487,2.5488,2.5477,2.5478,2.5499,2.5496,2.5566,2.5576,2.5526,2.5526,2.5527,0,2.5114,2.514,2.5173,2.5191,2.5207,2.5237,2.5257,2.5272,2.5293,2.5326,2.5346,2.538,2.5408,2.5462,2.5482,2.5515,2.5517,2.5539,2.5521,2.5517,2.5516,2.5513,2.5516,2.5542,2.5542,2.5542,2.5543,0,2.5163,2.5169,2.5198,2.5229,2.5252,2.5278,2.5303,2.5318,2.5337,2.536,2.5394,2.5415,2.5458,2.5492,2.5526,2.5543,2.5546,2.5548,2.5555,2.5551,2.5543,2.5546,2.5484,2.5546,2.5546,2.5546,2.5545,2.5545,2.5195,2.5217,2.5244,2.5275,2.5295,2.5319,2.5342,2.5359,2.5388,2.5423,2.5431,2.5467,2.5494,2.554,2.5558,2.5587,2.5582,2.5592,2.5595,2.5597,2.5597,2.5539,2.5594,2.5594,2.5594,2.5593,2.5593,0,2.5242,2.526,2.5288,2.5323,2.5347,2.5348,2.5376,2.5396,2.5428,2.5453,2.548,2.5519,2.5552,2.5575,2.5608,2.5627,2.5629,2.5635,2.5633,2.5637,2.56,2.559,2.5633,2.5633,2.5633,2.5633,2.5633,2.5633,2.527,2.5308,2.5318,2.5366,2.5383,2.5418,2.5434,2.5455,2.5475,2.5519,2.5545,2.556,2.5585,2.562,2.565,2.5656,2.5668,2.5673,2.5679,2.5644,2.564,2.5636,2.5627,2.5676,2.5676,2.5714,2.5714,2.5715]},{"header":{"parameterUnit":"m.s-1","parameterCategory":1,"la1":30.2991,"la2":30.254,"lo1":-89.0895,"lo2":-89.0444,"dy":0.0017,"dx":0.0017,"nx":28,"ny":28,"refTime":"2025-07-18T21:00:00:Z","depth":0,"parameterNumber":3,"parameterNumberName":"V-component_of_WINDS"},"data":[0,0,0,0,0,0,0,0,0,0,0,0,0,0,0,0,0,0,0,0,0,0,0,0,0,0,0,0,0,0,0,0,0,0,0,0,0,0,0,0,0,0,0,0,0,0,0,0,0,0,0,0,0,0,0,0,0,0,5.3012,5.3012,0,5.2978,5.2977,5.2977,5.2908,5.2906,5.2905,5.2904,5.2869,5.2869,5.287,0,0,0,0,0,0,0,0,0,0,0,0,0,5.3019,5.302,5.3012,5.3012,5.3012,5.2978,5.2977,5.2977,5.2908,5.2906,5.2905,5.2903,5.2869,5.2869,5.287,0,0,0,0,0,0,0,0,0,0,0,0,0,5.3004,5.302,5.3013,5.2973,5.2969,5.2978,5.2977,5.2977,5.2908,5.2906,5.2904,5.2902,5.2869,5.2869,5.287,5.2914,0,0,5.2871,5.2871,0,0,0,0,0,0,0,0,5.3005,5.3004,5.2979,5.2976,5.2972,5.2945,5.2967,5.2956,5.2909,5.2932,5.2904,5.2901,5.2896,5.2894,5.2892,5.2912,5.2911,5.2871,5.2872,5.2872,5.2872,0,0,0,0,0,0,0,5.3006,5.3005,5.2999,5.2979,5.2974,5.2957,5.2953,5.2964,5.2926,5.2929,5.2924,5.2921,5.2893,5.2892,5.2891,5.291,5.2871,5.2872,5.2872,5.2872,5.2964,5.2966,0,0,0,0,0,0,5.3013,5.3006,5.3,5.2998,5.2983,5.2959,5.2954,5.2956,5.2925,5.2919,5.2923,5.2918,5.2892,5.289,5.2889,5.2938,5.2872,5.2872,5.2873,5.2962,5.2964,5.2966,0,0,0,0,0,0,5.3013,5.3013,5.3001,5.3,5.2998,5.2961,5.2963,5.2956,5.2954,5.292,5.2913,5.2928,5.289,5.2889,5.2908,5.2936,5.2873,5.2873,5.2959,5.2962,5.2965,5.3037,0,0,0,0,0,0,5.3014,5.3013,5.303,5.3001,5.2998,5.3021,5.2965,5.2957,5.2955,5.2948,5.2924,5.2917,5.2888,5.2908,5.2909,5.2935,5.2873,5.2956,5.2961,5.2964,5.3032,5.3042,5.3051,0,0,0,0,0,5.3014,5.3052,5.3031,5.3031,5.3018,5.3022,5.3021,5.2986,5.2958,5.2974,5.2952,5.2918,5.2933,5.291,5.2911,5.2938,5.2954,5.2959,5.2964,5.3027,5.304,5.305,0,0,0,0,0,0,5.3085,5.3047,5.3024,5.3053,5.3042,5.3011,5.303,5.3001,5.2997,5.2991,5.2948,5.2943,5.2968,5.2955,5.2931,5.2979,5.2938,5.2943,5.2986,5.2998,5.3007,5.301,5.2874,0,0,0,0,0,5.3104,5.3111,5.3078,5.3107,5.3102,5.3067,5.3068,5.3043,5.3029,5.3023,5.3003,5.2991,5.2992,5.2995,5.2994,5.303,5.3023,5.3049,5.3058,5.3066,5.3071,5.3087,5.3098,5.2982,5.2982,5.2982,0,0,5.3143,5.3124,5.3131,5.3121,5.3108,5.3116,5.3064,5.3074,5.308,5.3025,5.3042,5.3027,5.301,5.3037,5.3048,5.3027,5.3101,5.3072,5.3079,5.3079,5.3093,5.3104,5.3114,5.2985,5.2985,5.2984,0,0,5.3219,5.3205,5.3227,5.3216,5.3198,5.3175,5.318,5.3154,5.3141,5.3157,5.3116,5.3122,5.3126,5.3116,5.3111,5.3182,5.3151,5.3183,5.3233,5.3249,5.3258,5.3266,5.3291,5.33,5.3188,5.3188,5.3189,0,5.327,5.328,5.3243,5.3256,5.3252,5.3203,5.3225,5.3216,5.3199,5.3198,5.3174,5.3177,5.3163,5.3187,5.3204,5.3202,5.3207,5.3186,5.326,5.3268,5.3275,5.3297,5.3307,5.3192,5.3192,5.3192,5.3191,0,5.3344,5.3351,5.3372,5.3356,5.3355,5.3372,5.3337,5.3341,5.3315,5.3294,5.3311,5.3292,5.3286,5.329,5.3266,5.331,5.3297,5.3268,5.3226,5.329,5.3311,5.3319,5.3198,5.3197,5.3196,5.3195,0,0,5.3463,5.3426,5.3434,5.3425,5.3402,5.3407,5.3422,5.3416,5.342,5.341,5.3421,5.3425,5.3397,5.3392,5.3366,5.3381,5.3437,5.3349,5.3348,5.3365,5.3484,5.3506,5.3516,5.3416,5.3418,5.3419,5.3485,0,5.3532,5.3556,5.3522,5.3553,5.3559,5.3512,5.3525,5.3512,5.3493,5.3495,5.3474,5.3477,5.3441,5.3437,5.345,5.3428,5.346,5.3422,5.3426,5.3426,5.3431,5.3527,5.3551,5.3614,5.3493,5.3494,5.3495,0,5.3617,5.361,5.3642,5.3615,5.3616,5.3629,5.362,5.3623,5.3607,5.3592,5.3586,5.3555,5.3567,5.3528,5.3544,5.3519,5.3519,5.3508,5.351,5.3508,5.3464,5.3528,5.3633,5.3642,5.3508,5.3507,5.3506,0,5.3699,5.3698,5.3717,5.3711,5.3681,5.3691,5.3679,5.3661,5.3659,5.3652,5.365,5.3645,5.3642,5.3638,5.3606,5.358,5.3626,5.3584,5.3614,5.3614,5.3625,5.3625,5.3731,5.3626,5.3626,5.3626,5.3626,0,5.378,5.3801,5.3753,5.3765,5.3786,5.3748,5.377,5.3753,5.3738,5.3745,5.3704,5.3711,5.3669,5.3672,5.3647,5.3664,5.3663,5.3651,5.3644,5.3654,5.3655,5.3652,5.3647,5.3628,5.3628,5.3627,5.3627,0,5.3876,5.3845,5.3861,5.3831,5.3824,5.3842,5.3816,5.3825,5.3803,5.3812,5.3812,5.3778,5.3779,5.3746,5.3741,5.3724,5.3752,5.3737,5.3757,5.3752,5.3784,5.3781,5.3891,5.3903,5.3792,5.3793,5.3794,0,5.3929,5.3944,5.3915,5.3917,5.3906,5.391,5.3908,5.387,5.3869,5.3852,5.3863,5.3861,5.3857,5.3861,5.3835,5.3831,5.3815,5.3854,5.3814,5.3824,5.3815,5.3814,5.3815,5.3862,5.3864,5.3865,5.3866,0,5.4026,5.401,5.4008,5.4002,5.4,5.3993,5.3984,5.3987,5.3946,5.3948,5.3948,5.3945,5.3939,5.3937,5.3928,5.3915,5.3884,5.3879,5.3885,5.3896,5.3906,5.39,5.3779,5.3876,5.3875,5.3874,5.3874,5.3874,5.4101,5.4112,5.4093,5.4093,5.4082,5.4073,5.408,5.4059,5.4058,5.405,5.4028,5.4032,5.4015,5.3999,5.3989,5.3992,5.3972,5.3982,5.3984,5.3987,5.3993,5.3906,5.399,5.3989,5.3989,5.3989,5.3989,0,5.4196,5.4182,5.4182,5.4169,5.4169,5.4139,5.4126,5.4128,5.4132,5.4119,5.4115,5.4116,5.4113,5.4087,5.4082,5.4089,5.4074,5.4088,5.4087,5.4085,5.4011,5.4005,5.41,5.41,5.41,5.41,5.41,5.41,5.4245,5.4261,5.4243,5.4253,5.4238,5.4242,5.4237,5.4229,5.4218,5.422,5.4217,5.42,5.4182,5.4174,5.4171,5.4163,5.4163,5.4182,5.417,5.4101,5.409,5.408,5.4074,5.4182,5.4183,5.4243,5.4244,5.4244]}]]